"read_dt","SO2 (ppb)","flags","PMT voltage (V)","lamp voltage (V)","lamp intensity (Hz)","internal temp (C)","react chamber temp (C)","sample flow (l/min)","pres (mmHg)","SO2 bkg (ppb)","SO2 coefficient"
2015-04-20 00:00:00,1855E-3,5C000000,-0724,0834,12028,025.6,045.4,0.480,740.7,01.18,0.508
2015-04-20 00:01:00,1834E-3,5C000000,-0724,0834,12117,025.7,045.4,0.480,740.7,01.18,0.508
2015-04-20 00:02:00,1796E-3,5C000000,-0724,0834,12223,025.7,045.4,0.480,740.7,01.18,0.508
2015-04-20 00:03:00,1874E-3,5C000000,-0724,0834,12114,025.6,045.4,0.480,740.7,01.18,0.508
2015-04-20 00:04:00,1712E-3,5C000000,-0724,0834,12211,025.6,045.4,0.480,740.7,01.18,0.508
2015-04-20 00:05:00,1872E-3,5C000000,-0724,0834,12092,025.6,045.4,0.480,740.7,01.18,0.508
2015-04-20 00:06:00,1760E-3,5C000000,-0724,0834,12252,025.6,045.4,0.480,740.7,01.18,0.508
2015-04-20 00:07:00,1808E-3,5C000000,-0724,0834,12204,025.7,045.4,0.480,740.7,01.18,0.508
2015-04-20 00:08:00,1759E-3,5C000000,-0724,0834,12100,025.6,045.4,0.480,740.7,01.18,0.508
2015-04-20 00:09:00,1724E-3,5C000000,-0724,0834,12115,025.7,045.4,0.480,740.7,01.18,0.508
2015-04-20 00:10:00,1884E-3,5C000000,-0724,0834,12067,025.7,045.4,0.480,740.7,01.18,0.508
2015-04-20 00:11:00,1959E-3,5C000000,-0724,0834,12233,025.7,045.4,0.480,740.6,01.18,0.508
2015-04-20 00:12:00,1861E-3,5C000000,-0724,0834,11978,025.7,045.4,0.480,740.6,01.18,0.508
2015-04-20 00:13:00,2053E-3,5C000000,-0724,0834,12109,025.7,045.4,0.480,740.6,01.18,0.508
2015-04-20 00:14:00,1803E-3,5C000000,-0724,0834,12222,025.7,045.4,0.480,740.6,01.18,0.508
2015-04-20 00:15:00,1741E-3,5C000000,-0724,0834,12255,025.7,045.4,0.480,740.6,01.18,0.508
2015-04-20 00:16:00,1980E-3,5C000000,-0724,0834,12286,025.7,045.4,0.480,740.6,01.18,0.508
2015-04-20 00:17:00,1829E-3,5C000000,-0724,0833,12213,025.7,045.4,0.480,740.6,01.18,0.508
2015-04-20 00:18:00,1811E-3,5C000000,-0724,0834,12204,025.7,045.4,0.480,740.6,01.18,0.508
2015-04-20 00:19:00,2019E-3,5C000000,-0724,0834,12204,025.7,045.4,0.480,740.6,01.18,0.508
2015-04-20 00:20:00,1817E-3,5C000000,-0724,0834,12206,025.7,045.4,0.479,740.6,01.18,0.508
2015-04-20 00:21:00,1823E-3,5C000000,-0724,0833,12132,025.7,045.4,0.480,740.6,01.18,0.508
2015-04-20 00:22:00,1705E-3,5C000000,-0724,0834,12194,025.7,045.4,0.480,740.6,01.18,0.508
2015-04-20 00:23:00,1993E-3,5C000000,-0724,0834,12188,025.8,045.4,0.479,740.6,01.18,0.508
2015-04-20 00:24:00,1943E-3,5C000000,-0724,0834,12144,025.7,045.4,0.480,740.6,01.18,0.508
2015-04-20 00:25:00,1913E-3,5C000000,-0724,0834,12115,025.7,045.4,0.480,740.6,01.18,0.508
2015-04-20 00:26:00,1820E-3,5C000000,-0724,0834,12145,025.7,045.4,0.479,740.6,01.18,0.508
2015-04-20 00:27:00,1900E-3,5C000000,-0724,0834,12067,025.7,045.4,0.480,740.6,01.18,0.508
2015-04-20 00:28:00,2294E-3,5C000000,-0724,0833,12214,025.8,045.4,0.480,740.6,01.18,0.508
2015-04-20 00:29:00,2553E-3,5C000000,-0724,0834,12193,025.8,045.4,0.479,740.6,01.18,0.508
2015-04-20 00:30:00,2235E-3,5C000000,-0724,0835,12249,025.8,045.4,0.480,740.6,01.18,0.508
2015-04-20 00:31:00,2162E-3,5C000000,-0724,0834,12244,025.8,045.4,0.480,740.6,01.18,0.508
2015-04-20 00:32:00,2340E-3,5C000000,-0724,0834,12208,025.8,045.4,0.480,740.6,01.18,0.508
2015-04-20 00:33:00,2158E-3,5C000000,-0724,0833,12200,025.8,045.4,0.480,740.6,01.18,0.508
2015-04-20 00:34:00,2143E-3,5C000000,-0724,0834,12212,025.8,045.4,0.480,740.6,01.18,0.508
2015-04-20 00:35:00,2074E-3,5C000000,-0724,0834,12247,025.8,045.4,0.480,740.6,01.18,0.508
2015-04-20 00:36:00,2102E-3,5C000000,-0724,0834,12133,025.8,045.4,0.480,740.6,01.18,0.508
2015-04-20 00:37:00,2215E-3,5C000000,-0724,0834,12062,025.8,045.4,0.479,740.6,01.18,0.508
2015-04-20 00:38:00,1865E-3,5C000000,-0724,0833,12188,025.8,045.4,0.480,740.6,01.18,0.508
2015-04-20 00:39:00,1823E-3,5C000000,-0724,0834,11961,025.8,045.4,0.480,740.6,01.18,0.508
2015-04-20 00:40:00,1884E-3,5C000000,-0724,0834,12090,025.8,045.4,0.480,740.6,01.18,0.508
2015-04-20 00:41:00,1788E-3,5C000000,-0724,0834,12153,025.8,045.4,0.479,740.6,01.18,0.508
2015-04-20 00:42:00,1782E-3,5C000000,-0724,0834,12342,025.8,045.4,0.480,740.6,01.18,0.508
2015-04-20 00:43:00,1770E-3,5C000000,-0724,0834,12195,025.8,045.4,0.479,740.6,01.18,0.508
2015-04-20 00:44:00,1884E-3,5C000000,-0724,0834,12208,025.8,045.4,0.479,740.6,01.18,0.508
2015-04-20 00:45:00,1890E-3,5C000000,-0724,0834,12089,025.9,045.4,0.480,740.6,01.18,0.508
2015-04-20 00:46:00,1844E-3,5C000000,-0724,0833,12195,025.8,045.4,0.480,740.6,01.18,0.508
2015-04-20 00:47:00,1952E-3,5C000000,-0724,0834,12240,025.8,045.4,0.479,740.6,01.18,0.508
2015-04-20 00:48:00,1749E-3,5C000000,-0724,0833,12200,025.8,045.4,0.480,740.6,01.18,0.508
2015-04-20 00:49:00,1762E-3,5C000000,-0724,0833,12116,025.9,045.4,0.480,740.6,01.18,0.508
2015-04-20 00:50:00,1883E-3,5C000000,-0724,0834,12109,025.9,045.4,0.479,740.6,01.18,0.508
2015-04-20 00:51:00,1940E-3,5C000000,-0724,0834,12087,025.9,045.4,0.480,740.6,01.18,0.508
2015-04-20 00:52:00,1906E-3,5C000000,-0724,0834,12159,025.9,045.4,0.480,740.6,01.18,0.508
2015-04-20 00:53:00,1796E-3,5C000000,-0724,0834,12236,025.9,045.4,0.479,740.6,01.18,0.508
2015-04-20 00:54:00,1866E-3,5C000000,-0724,0834,12282,025.9,045.4,0.479,740.6,01.18,0.508
2015-04-20 00:55:00,1886E-3,5C000000,-0724,0834,12140,025.9,045.4,0.480,740.6,01.18,0.508
2015-04-20 00:56:00,1845E-3,5C000000,-0724,0834,12218,025.9,045.4,0.479,740.6,01.18,0.508
2015-04-20 00:57:00,1727E-3,5C000000,-0724,0834,12014,025.9,045.4,0.479,740.6,01.18,0.508
2015-04-20 00:58:00,1734E-3,5C000000,-0724,0834,12087,025.9,045.4,0.480,740.6,01.18,0.508
2015-04-20 00:59:00,1778E-3,5C000000,-0724,0834,12279,025.9,045.4,0.479,740.6,01.18,0.508
2015-04-20 01:00:00,1801E-3,5C000000,-0724,0833,12154,025.9,045.4,0.479,740.6,01.18,0.508
2015-04-20 01:01:00,1793E-3,5C000000,-0724,0833,12180,025.9,045.4,0.480,740.6,01.18,0.508
2015-04-20 01:02:00,1782E-3,5C000000,-0724,0834,12220,025.9,045.4,0.479,740.6,01.18,0.508
2015-04-20 01:03:00,1919E-3,5C000000,-0724,0835,12151,025.9,045.4,0.479,740.6,01.18,0.508
2015-04-20 01:04:00,1831E-3,5C000000,-0724,0834,12226,025.9,045.4,0.479,740.6,01.18,0.508
2015-04-20 01:05:00,1822E-3,5C000000,-0724,0835,12246,026.0,045.4,0.480,740.6,01.18,0.508
2015-04-20 01:06:00,1762E-3,5C000000,-0724,0834,12215,026.0,045.4,0.479,740.6,01.18,0.508
2015-04-20 01:07:00,1793E-3,5C000000,-0724,0834,12183,026.0,045.4,0.479,740.6,01.18,0.508
2015-04-20 01:08:00,1750E-3,5C000000,-0724,0834,12067,026.0,045.4,0.479,740.6,01.18,0.508
2015-04-20 01:09:00,1990E-3,5C000000,-0724,0834,12028,026.0,045.4,0.480,740.6,01.18,0.508
2015-04-20 01:10:00,1996E-3,5C000000,-0724,0833,12077,026.0,045.4,0.479,740.6,01.18,0.508
2015-04-20 01:11:00,1857E-3,5C000000,-0724,0834,12234,026.0,045.4,0.479,740.5,01.18,0.508
2015-04-20 01:12:00,1890E-3,5C000000,-0724,0834,12124,026.0,045.4,0.480,740.6,01.18,0.508
2015-04-20 01:13:00,1880E-3,5C000000,-0724,0834,12142,026.0,045.4,0.479,740.6,01.18,0.508
2015-04-20 01:14:00,1940E-3,5C000000,-0724,0834,12287,026.0,045.4,0.479,740.5,01.18,0.508
2015-04-20 01:15:00,1756E-3,5C000000,-0724,0834,12056,026.0,045.4,0.479,740.6,01.18,0.508
2015-04-20 01:16:00,1888E-3,5C000000,-0724,0835,12298,026.0,045.4,0.479,740.6,01.18,0.508
2015-04-20 01:17:00,2061E-3,5C000000,-0724,0834,12067,026.0,045.4,0.479,740.6,01.18,0.508
2015-04-20 01:18:00,1927E-3,5C000000,-0724,0834,12236,026.0,045.4,0.479,740.6,01.18,0.508
2015-04-20 01:19:00,1903E-3,5C000000,-0724,0834,12238,026.0,045.4,0.479,740.6,01.18,0.508
2015-04-20 01:20:00,1819E-3,5C000000,-0724,0834,12066,026.0,045.4,0.479,740.6,01.18,0.508
2015-04-20 01:21:00,1857E-3,5C000000,-0724,0834,12167,026.0,045.4,0.479,740.5,01.18,0.508
2015-04-20 01:22:00,1893E-3,5C000000,-0724,0834,12281,026.1,045.4,0.479,740.5,01.18,0.508
2015-04-20 01:23:00,1933E-3,5C000000,-0724,0834,12292,026.1,045.4,0.480,740.5,01.18,0.508
2015-04-20 01:24:00,1903E-3,5C000000,-0724,0834,12120,026.1,045.4,0.479,740.5,01.18,0.508
2015-04-20 01:25:00,1952E-3,5C000000,-0724,0835,11961,026.1,045.4,0.479,740.5,01.18,0.508
2015-04-20 01:26:00,2083E-3,5C000000,-0724,0834,12088,026.1,045.4,0.479,740.5,01.18,0.508
2015-04-20 01:27:00,1697E-3,5C000000,-0724,0834,12191,026.1,045.4,0.480,740.6,01.18,0.508
2015-04-20 01:28:00,1737E-3,5C000000,-0724,0834,12197,026.1,045.4,0.479,740.5,01.18,0.508
2015-04-20 01:29:00,1873E-3,5C000000,-0724,0834,12180,026.1,045.4,0.479,740.6,01.18,0.508
2015-04-20 01:30:00,2084E-3,5C000000,-0724,0834,12166,026.1,045.4,0.479,740.6,01.18,0.508
2015-04-20 01:31:00,2030E-3,5C000000,-0724,0834,12182,026.1,045.4,0.479,740.5,01.18,0.508
2015-04-20 01:32:00,2035E-3,5C000000,-0724,0833,12282,026.1,045.4,0.479,740.6,01.18,0.508
2015-04-20 01:33:00,1944E-3,5C000000,-0724,0833,12157,026.1,045.4,0.479,740.5,01.18,0.508
2015-04-20 01:34:00,1899E-3,5C000000,-0724,0834,12103,026.1,045.4,0.479,740.5,01.18,0.508
2015-04-20 01:35:00,1796E-3,5C000000,-0724,0834,12251,026.1,045.4,0.479,740.5,01.18,0.508
2015-04-20 01:36:00,1831E-3,5C000000,-0724,0833,12198,026.1,045.4,0.479,740.5,01.18,0.508
2015-04-20 01:37:00,1828E-3,5C000000,-0724,0834,12311,026.1,045.4,0.479,740.6,01.18,0.508
2015-04-20 01:38:00,1995E-3,5C000000,-0724,0834,12069,026.1,045.4,0.479,740.6,01.18,0.508
2015-04-20 01:39:00,1955E-3,5C000000,-0724,0834,12091,026.1,045.4,0.479,740.5,01.18,0.508
2015-04-20 01:40:00,1801E-3,5C000000,-0724,0833,12193,026.1,045.4,0.479,740.5,01.18,0.508
2015-04-20 01:41:00,1942E-3,5C000000,-0724,0834,12250,026.1,045.4,0.479,740.5,01.18,0.508
2015-04-20 01:42:00,1782E-3,5C000000,-0724,0834,12278,026.1,045.4,0.479,740.5,01.18,0.508
2015-04-20 01:43:00,1910E-3,5C000000,-0724,0833,12259,026.1,045.4,0.479,740.5,01.18,0.508
2015-04-20 01:44:00,1789E-3,5C000000,-0724,0834,12055,026.2,045.4,0.479,740.5,01.18,0.508
2015-04-20 01:45:00,1922E-3,5C000000,-0724,0834,12230,026.1,045.4,0.479,740.6,01.18,0.508
2015-04-20 01:46:00,1831E-3,5C000000,-0724,0833,12174,026.1,045.4,0.479,740.5,01.18,0.508
2015-04-20 01:47:00,1771E-3,5C000000,-0724,0834,12125,026.1,045.4,0.479,740.5,01.18,0.508
2015-04-20 01:48:00,1856E-3,5C000000,-0724,0835,12085,026.2,045.4,0.479,740.6,01.18,0.508
2015-04-20 01:49:00,1769E-3,5C000000,-0724,0834,12036,026.2,045.4,0.479,740.5,01.18,0.508
2015-04-20 01:50:00,1762E-3,5C000000,-0724,0835,12057,026.1,045.4,0.479,740.5,01.18,0.508
2015-04-20 01:51:00,1858E-3,5C000000,-0724,0834,12179,026.1,045.4,0.479,740.5,01.18,0.508
2015-04-20 01:52:00,1776E-3,5C000000,-0724,0833,12150,026.1,045.4,0.479,740.5,01.18,0.508
2015-04-20 01:53:00,1843E-3,5C000000,-0724,0834,12217,026.2,045.4,0.479,740.6,01.18,0.508
2015-04-20 01:54:00,1810E-3,5C000000,-0724,0834,12030,026.2,045.4,0.479,740.6,01.18,0.508
2015-04-20 01:55:00,1762E-3,5C000000,-0724,0835,12177,026.1,045.4,0.479,740.6,01.18,0.508
2015-04-20 01:56:00,1817E-3,5C000000,-0724,0834,12210,026.1,045.4,0.479,740.6,01.18,0.508
2015-04-20 01:57:00,1816E-3,5C000000,-0724,0834,12287,026.2,045.4,0.479,740.6,01.18,0.508
2015-04-20 01:58:00,1819E-3,5C000000,-0724,0834,12156,026.2,045.4,0.479,740.5,01.18,0.508
2015-04-20 01:59:00,1776E-3,5C000000,-0724,0834,11953,026.2,045.4,0.479,740.6,01.18,0.508
2015-04-20 02:00:00,1745E-3,5C000000,-0724,0834,12155,026.2,045.4,0.479,740.5,01.18,0.508
2015-04-20 02:01:00,1932E-3,5C000000,-0724,0835,12127,026.2,045.4,0.479,740.5,01.18,0.508
2015-04-20 02:02:00,1898E-3,5C000000,-0724,0834,12197,026.2,045.4,0.479,740.6,01.18,0.508
2015-04-20 02:03:00,1754E-3,5C000000,-0724,0834,12249,026.2,045.4,0.479,740.6,01.18,0.508
2015-04-20 02:04:00,1800E-3,5C000000,-0724,0834,12154,026.2,045.4,0.479,740.6,01.18,0.508
2015-04-20 02:05:00,1814E-3,5C000000,-0724,0835,12080,026.2,045.4,0.479,740.5,01.18,0.508
2015-04-20 02:06:00,1766E-3,5C000000,-0724,0834,12170,026.2,045.4,0.479,740.5,01.18,0.508
2015-04-20 02:07:00,1795E-3,5C000000,-0724,0834,12110,026.2,045.4,0.479,740.6,01.18,0.508
2015-04-20 02:08:00,1913E-3,5C000000,-0724,0834,12139,026.2,045.4,0.479,740.5,01.18,0.508
2015-04-20 02:09:00,1832E-3,5C000000,-0724,0834,12169,026.2,045.4,0.479,740.5,01.18,0.508
2015-04-20 02:10:00,1778E-3,5C000000,-0724,0834,12155,026.2,045.4,0.479,740.6,01.18,0.508
2015-04-20 02:11:00,1775E-3,5C000000,-0724,0835,12161,026.3,045.4,0.479,740.6,01.18,0.508
2015-04-20 02:12:00,1840E-3,5C000000,-0724,0834,12273,026.2,045.4,0.479,740.5,01.18,0.508
2015-04-20 02:13:00,1939E-3,5C000000,-0724,0834,12215,026.2,045.4,0.479,740.6,01.18,0.508
2015-04-20 02:14:00,1769E-3,5C000000,-0724,0834,12133,026.3,045.4,0.479,740.6,01.18,0.508
2015-04-20 02:15:00,1972E-3,5C000000,-0724,0834,12207,026.2,045.4,0.479,740.6,01.18,0.508
2015-04-20 02:16:00,1712E-3,5C000000,-0724,0834,12214,026.2,045.4,0.479,740.6,01.18,0.508
2015-04-20 02:17:00,1881E-3,5C000000,-0724,0834,12234,026.2,045.4,0.479,740.6,01.18,0.508
2015-04-20 02:18:00,1782E-3,5C000000,-0724,0835,12155,026.3,045.4,0.479,740.5,01.18,0.508
2015-04-20 02:19:00,1775E-3,5C000000,-0724,0834,12237,026.2,045.4,0.479,740.5,01.18,0.508
2015-04-20 02:20:00,1763E-3,5C000000,-0724,0834,11983,026.3,045.4,0.479,740.6,01.18,0.508
2015-04-20 02:21:00,1888E-3,5C000000,-0724,0835,12249,026.3,045.4,0.479,740.6,01.18,0.508
2015-04-20 02:22:00,1812E-3,5C000000,-0724,0835,12220,026.3,045.4,0.479,740.5,01.18,0.508
2015-04-20 02:23:00,1821E-3,5C000000,-0724,0834,12033,026.2,045.4,0.479,740.5,01.18,0.508
2015-04-20 02:24:00,1844E-3,5C000000,-0724,0834,12094,026.3,045.4,0.479,740.5,01.18,0.508
2015-04-20 02:25:00,1789E-3,5C000000,-0724,0834,12062,026.3,045.4,0.479,740.5,01.18,0.508
2015-04-20 02:26:00,1774E-3,5C000000,-0724,0834,12213,026.3,045.4,0.479,740.5,01.18,0.508
2015-04-20 02:27:00,1792E-3,5C000000,-0724,0834,12128,026.3,045.4,0.479,740.5,01.18,0.508
2015-04-20 02:28:00,1824E-3,5C000000,-0724,0833,12242,026.3,045.4,0.479,740.5,01.18,0.508
2015-04-20 02:29:00,1680E-3,5C000000,-0724,0834,12184,026.3,045.4,0.479,740.5,01.18,0.508
2015-04-20 02:30:00,1560E-3,5C000000,-0724,0835,12085,026.3,045.4,0.479,740.5,01.18,0.508
2015-04-20 02:31:00,1714E-3,5C000000,-0724,0834,12099,026.3,045.4,0.479,740.5,01.18,0.508
2015-04-20 02:32:00,1771E-3,5C000000,-0724,0834,12168,026.3,045.4,0.479,740.5,01.18,0.508
2015-04-20 02:33:00,1729E-3,5C000000,-0724,0834,12196,026.3,045.4,0.479,740.5,01.18,0.508
2015-04-20 02:34:00,1854E-3,5C000000,-0724,0834,12041,026.3,045.4,0.479,740.5,01.18,0.508
2015-04-20 02:35:00,1848E-3,5C000000,-0724,0834,12057,026.3,045.4,0.479,740.6,01.18,0.508
2015-04-20 02:36:00,1812E-3,5C000000,-0724,0834,11998,026.3,045.4,0.479,740.5,01.18,0.508
2015-04-20 02:37:00,1661E-3,5C000000,-0724,0834,12076,026.3,045.4,0.479,740.5,01.18,0.508
2015-04-20 02:38:00,1835E-3,5C000000,-0724,0834,12213,026.3,045.4,0.479,740.5,01.18,0.508
2015-04-20 02:39:00,1724E-3,5C000000,-0724,0834,12180,026.3,045.4,0.479,740.5,01.18,0.508
2015-04-20 02:40:00,1893E-3,5C000000,-0724,0834,12073,026.3,045.4,0.479,740.6,01.18,0.508
2015-04-20 02:41:00,1736E-3,5C000000,-0724,0834,12143,026.3,045.4,0.479,740.6,01.18,0.508
2015-04-20 02:42:00,1919E-3,5C000000,-0724,0834,12218,026.3,045.4,0.479,740.5,01.18,0.508
2015-04-20 02:43:00,1870E-3,5C000000,-0724,0835,11927,026.4,045.4,0.479,740.6,01.18,0.508
2015-04-20 02:44:00,1809E-3,5C000000,-0724,0834,12250,026.4,045.4,0.479,740.6,01.18,0.508
2015-04-20 02:45:00,1690E-3,5C000000,-0724,0835,12175,026.4,045.4,0.479,740.5,01.18,0.508
2015-04-20 02:46:00,1803E-3,5C000000,-0724,0835,12273,026.4,045.4,0.479,740.5,01.18,0.508
2015-04-20 02:47:00,1759E-3,5C000000,-0724,0835,12244,026.4,045.4,0.479,740.5,01.18,0.508
2015-04-20 02:48:00,1806E-3,5C000000,-0724,0833,12142,026.4,045.4,0.479,740.5,01.18,0.508
2015-04-20 02:49:00,1937E-3,5C000000,-0724,0834,12077,026.4,045.4,0.479,740.6,01.18,0.508
2015-04-20 02:50:00,1830E-3,5C000000,-0724,0834,12110,026.4,045.4,0.479,740.5,01.18,0.508
2015-04-20 02:51:00,1681E-3,5C000000,-0724,0834,12168,026.4,045.4,0.479,740.5,01.18,0.508
2015-04-20 02:52:00,1840E-3,5C000000,-0724,0833,12040,026.4,045.4,0.479,740.5,01.18,0.508
2015-04-20 02:53:00,1874E-3,5C000000,-0724,0834,12130,026.4,045.4,0.479,740.6,01.18,0.508
2015-04-20 02:54:00,1808E-3,5C000000,-0724,0835,12219,026.4,045.4,0.479,740.6,01.18,0.508
2015-04-20 02:55:00,1862E-3,5C000000,-0724,0835,12082,026.4,045.4,0.479,740.6,01.18,0.508
2015-04-20 02:56:00,1842E-3,5C000000,-0724,0834,12130,026.4,045.4,0.479,740.6,01.18,0.508
2015-04-20 02:57:00,1793E-3,5C000000,-0724,0834,12027,026.4,045.4,0.478,740.5,01.18,0.508
2015-04-20 02:58:00,1824E-3,5C000000,-0724,0834,12184,026.4,045.4,0.479,740.6,01.18,0.508
2015-04-20 02:59:00,1829E-3,5C000000,-0724,0835,12309,026.4,045.4,0.479,740.6,01.18,0.508
2015-04-20 03:00:00,1864E-3,5C000000,-0724,0834,12225,026.4,045.4,0.479,740.6,01.18,0.508
2015-04-20 03:01:00,1888E-3,5C000000,-0724,0835,12107,026.4,045.4,0.478,740.6,01.18,0.508
2015-04-20 03:02:00,1796E-3,5C000000,-0724,0835,12187,026.4,045.4,0.479,740.6,01.18,0.508
2015-04-20 03:03:00,1898E-3,5C000000,-0724,0834,11965,026.4,045.4,0.479,740.6,01.18,0.508
2015-04-20 03:04:00,1752E-3,5C000000,-0724,0834,12148,026.4,045.4,0.479,740.5,01.18,0.508
2015-04-20 03:05:00,1798E-3,5C000000,-0724,0835,12220,026.4,045.4,0.478,740.5,01.18,0.508
2015-04-20 03:06:00,2003E-3,5C000000,-0724,0834,12068,026.4,045.4,0.479,740.5,01.18,0.508
2015-04-20 03:07:00,1782E-3,5C000000,-0724,0834,12138,026.5,045.4,0.479,740.5,01.18,0.508
2015-04-20 03:08:00,1942E-3,5C000000,-0724,0835,12168,026.4,045.4,0.479,740.6,01.18,0.508
2015-04-20 03:09:00,1704E-3,5C000000,-0724,0835,11968,026.4,045.4,0.478,740.5,01.18,0.508
2015-04-20 03:10:00,1696E-3,5C000000,-0724,0834,12240,026.4,045.4,0.479,740.6,01.18,0.508
2015-04-20 03:11:00,1738E-3,5C000000,-0724,0834,12182,026.4,045.4,0.479,740.5,01.18,0.508
2015-04-20 03:12:00,1811E-3,5C000000,-0724,0834,11910,026.4,045.4,0.479,740.6,01.18,0.508
2015-04-20 03:13:00,1804E-3,5C000000,-0724,0834,12019,026.4,045.4,0.479,740.6,01.18,0.508
2015-04-20 03:14:00,1745E-3,5C000000,-0724,0835,12176,026.4,045.4,0.479,740.6,01.18,0.508
2015-04-20 03:15:00,1877E-3,5C000000,-0724,0835,12245,026.5,045.4,0.479,740.5,01.18,0.508
2015-04-20 03:16:00,1826E-3,5C000000,-0724,0834,12209,026.5,045.4,0.479,740.5,01.18,0.508
2015-04-20 03:17:00,1763E-3,5C000000,-0724,0835,12003,026.5,045.4,0.479,740.5,01.18,0.508
2015-04-20 03:18:00,1764E-3,5C000000,-0724,0834,12257,026.5,045.4,0.479,740.5,01.18,0.508
2015-04-20 03:19:00,1857E-3,5C000000,-0724,0834,12089,026.5,045.4,0.479,740.5,01.18,0.508
2015-04-20 03:20:00,1791E-3,5C000000,-0724,0834,12078,026.5,045.4,0.479,740.5,01.18,0.508
2015-04-20 03:21:00,1735E-3,5C000000,-0724,0834,12160,026.5,045.4,0.479,740.5,01.18,0.508
2015-04-20 03:22:00,1921E-3,5C000000,-0724,0834,12124,026.5,045.4,0.479,740.5,01.18,0.508
2015-04-20 03:23:00,1794E-3,5C000000,-0724,0835,12201,026.5,045.4,0.479,740.5,01.18,0.508
2015-04-20 03:24:00,1816E-3,5C000000,-0724,0834,12145,026.5,045.4,0.479,740.5,01.18,0.508
2015-04-20 03:25:00,1762E-3,5C000000,-0724,0835,12296,026.5,045.4,0.478,740.6,01.18,0.508
2015-04-20 03:26:00,1712E-3,5C000000,-0724,0834,12179,026.5,045.4,0.479,740.5,01.18,0.508
2015-04-20 03:27:00,1837E-3,5C000000,-0724,0835,12243,026.5,045.4,0.479,740.5,01.18,0.508
2015-04-20 03:28:00,1807E-3,5C000000,-0724,0834,12089,026.5,045.4,0.479,740.6,01.18,0.508
2015-04-20 03:29:00,1802E-3,5C000000,-0724,0835,12146,026.5,045.4,0.478,740.5,01.18,0.508
2015-04-20 03:30:00,1910E-3,5C000000,-0724,0835,12243,026.5,045.4,0.479,740.6,01.18,0.508
2015-04-20 03:31:00,1791E-3,5C000000,-0724,0834,12194,026.5,045.4,0.479,740.6,01.18,0.508
2015-04-20 03:32:00,1770E-3,5C000000,-0724,0835,12121,026.5,045.4,0.479,740.5,01.18,0.508
2015-04-20 03:33:00,1667E-3,5C000000,-0724,0834,12139,026.6,045.4,0.478,740.5,01.18,0.508
2015-04-20 03:34:00,1635E-3,5C000000,-0724,0834,12167,026.6,045.4,0.479,740.5,01.18,0.508
2015-04-20 03:35:00,1742E-3,5C000000,-0724,0834,12193,026.5,045.4,0.479,740.5,01.18,0.508
2015-04-20 03:36:00,1789E-3,5C000000,-0724,0834,12212,026.5,045.4,0.479,740.4,01.18,0.508
2015-04-20 03:37:00,1797E-3,5C000000,-0724,0835,12292,026.6,045.4,0.478,740.5,01.18,0.508
2015-04-20 03:38:00,1837E-3,5C000000,-0724,0834,12136,026.5,045.4,0.478,740.5,01.18,0.508
2015-04-20 03:39:00,1738E-3,5C000000,-0724,0834,12052,026.6,045.4,0.479,740.5,01.18,0.508
2015-04-20 03:40:00,1760E-3,5C000000,-0724,0834,12052,026.6,045.4,0.479,740.5,01.18,0.508
2015-04-20 03:41:00,1880E-3,5C000000,-0724,0834,12130,026.6,045.4,0.479,740.4,01.18,0.508
2015-04-20 03:42:00,1728E-3,5C000000,-0724,0834,12017,026.6,045.4,0.478,740.5,01.18,0.508
2015-04-20 03:43:00,1815E-3,5C000000,-0724,0835,12232,026.6,045.4,0.479,740.5,01.18,0.508
2015-04-20 03:44:00,1822E-3,5C000000,-0724,0834,12098,026.6,045.4,0.479,740.4,01.18,0.508
2015-04-20 03:45:00,1861E-3,5C000000,-0724,0834,12011,026.6,045.4,0.479,740.5,01.18,0.508
2015-04-20 03:46:00,1806E-3,5C000000,-0724,0834,12177,026.6,045.4,0.478,740.5,01.18,0.508
2015-04-20 03:47:00,1812E-3,5C000000,-0724,0834,12168,026.6,045.4,0.478,740.5,01.18,0.508
2015-04-20 03:48:00,1773E-3,5C000000,-0724,0834,12114,026.6,045.4,0.479,740.3,01.18,0.508
2015-04-20 03:49:00,1759E-3,5C000000,-0724,0834,12188,026.6,045.4,0.479,740.3,01.18,0.508
2015-04-20 03:50:00,1709E-3,5C000000,-0724,0834,12253,026.6,045.4,0.478,740.4,01.18,0.508
2015-04-20 03:51:00,1807E-3,5C000000,-0724,0834,12139,026.6,045.4,0.478,740.3,01.18,0.508
2015-04-20 03:52:00,1868E-3,5C000000,-0724,0834,12181,026.6,045.4,0.478,740.2,01.18,0.508
2015-04-20 03:53:00,1936E-3,5C000000,-0724,0834,12098,026.6,045.4,0.479,740.2,01.18,0.508
2015-04-20 03:54:00,1860E-3,5C000000,-0724,0835,12077,026.6,045.4,0.479,740.2,01.18,0.508
2015-04-20 03:55:00,1838E-3,5C000000,-0724,0834,12252,026.7,045.4,0.478,740.2,01.18,0.508
2015-04-20 03:56:00,1664E-3,5C000000,-0724,0834,12194,026.7,045.4,0.478,740.2,01.18,0.508
2015-04-20 03:57:00,1737E-3,5C000000,-0724,0834,12167,026.7,045.4,0.479,740.2,01.18,0.508
2015-04-20 03:58:00,1812E-3,5C000000,-0724,0833,12163,026.7,045.4,0.479,740.2,01.18,0.508
2015-04-20 03:59:00,1758E-3,5C000000,-0724,0834,12213,026.7,045.4,0.478,740.2,01.18,0.508
2015-04-20 04:00:00,1697E-3,5C000000,-0724,0835,12262,026.7,045.4,0.478,740.2,01.18,0.508
2015-04-20 04:01:00,1822E-3,5C000000,-0724,0833,12147,026.7,045.4,0.478,740.2,01.18,0.508
2015-04-20 04:02:00,1766E-3,5C000000,-0724,0834,12037,026.7,045.4,0.479,740.2,01.18,0.508
2015-04-20 04:03:00,1790E-3,5C000000,-0724,0833,12085,026.7,045.4,0.479,740.2,01.18,0.508
2015-04-20 04:04:00,1851E-3,5C000000,-0724,0834,12106,026.7,045.4,0.478,740.2,01.18,0.508
2015-04-20 04:05:00,1638E-3,5C000000,-0724,0834,12244,026.7,045.4,0.478,740.2,01.18,0.508
2015-04-20 04:06:00,1800E-3,5C000000,-0724,0833,12121,026.7,045.4,0.479,740.2,01.18,0.508
2015-04-20 04:07:00,1750E-3,5C000000,-0724,0835,12230,026.7,045.4,0.479,740.3,01.18,0.508
2015-04-20 04:08:00,1797E-3,5C000000,-0724,0834,12109,026.7,045.4,0.479,740.2,01.18,0.508
2015-04-20 04:09:00,1865E-3,5C000000,-0724,0834,12097,026.7,045.4,0.478,740.2,01.18,0.508
2015-04-20 04:10:00,1775E-3,5C000000,-0724,0834,12114,026.7,045.4,0.479,740.3,01.18,0.508
2015-04-20 04:11:00,1795E-3,5C000000,-0724,0835,11927,026.7,045.4,0.479,740.3,01.18,0.508
2015-04-20 04:12:00,1797E-3,5C000000,-0724,0834,12189,026.7,045.4,0.479,740.3,01.18,0.508
2015-04-20 04:13:00,1714E-3,5C000000,-0724,0834,11927,026.7,045.4,0.478,740.3,01.18,0.508
2015-04-20 04:14:00,1752E-3,5C000000,-0724,0834,12184,026.7,045.4,0.478,740.2,01.18,0.508
2015-04-20 04:15:00,1934E-3,5C000000,-0724,0835,12247,026.7,045.4,0.479,740.2,01.18,0.508
2015-04-20 04:16:00,1889E-3,5C000000,-0724,0834,12143,026.7,045.4,0.479,740.2,01.18,0.508
2015-04-20 04:17:00,1831E-3,5C000000,-0724,0834,12173,026.7,045.4,0.478,740.2,01.18,0.508
2015-04-20 04:18:00,1767E-3,5C000000,-0724,0834,12198,026.7,045.4,0.478,740.2,01.18,0.508
2015-04-20 04:19:00,1731E-3,5C000000,-0724,0834,12166,026.7,045.4,0.478,740.2,01.18,0.508
2015-04-20 04:20:00,1745E-3,5C000000,-0724,0834,12177,026.7,045.4,0.479,740.2,01.18,0.508